Flag for Germany Weather past 2 weeks in Schwäbisch Gmünd, Baden-Württemberg, Germany

Now
54 °F

Passing clouds.


Feels Like: 54 °F
Forecast: 43 / 64 °F
Wind: 3 mph from Southwest

Location: Stoetten

Current Time: Aug 23, 2014 at 2:33:20 AM

Latest Report: Aug 23, 2014 at 2:00 AM


Visibility: 16 mi

Pressure: 29.99 "Hg

Humidity: 69%

Dew point: 44 °F

Location of Schwäbisch GmündLocation

Historic Weather in Schwäbisch Gmünd — Graph

°F

Schwäbisch Gmünd temperature yesterday

Maximum temperature yesterday: 64 °F (at 4:00 PM)
Minimum temperature yesterday: 49 °F (at 7:00 AM)
Average temperature yesterday: 55 °F

Past Weeks' High & Low Weather Summary

 TemperatureHumidityPressure
High78 °F (Aug 10, 4:00 PM)100% (Aug 16, 9:00 AM)30.19 "Hg (Aug 16, 9:00 AM)
Low47 °F (Aug 20, 5:00 AM)46% (Aug 21, 2:00 PM)29.66 "Hg (Aug 13, 3:00 PM)
Average57 °F77%29.95 "Hg
* Reported Aug 8 1:00 AM — Aug 23 1:00 AM, Schwäbisch Gmünd, Weather by CustomWeather, © 2014

Note: Actual official high and low records may vary slightly from our data, if they occured in-between our weather recording intervals... More about our weather records

Advertising

Schwäbisch Gmünd weather history for previous 24 hours

 ConditionsComfort  
Time TempWeatherWind HumidityBarometerVisibility
1:00 AM
Aug 23
53 °FPassing clouds.2 mph69%30.00 "Hg34 mi
12:00 AM53 °FPassing clouds.2 mph70%30.00 "Hg22 mi
11:00 PM
Aug 22
53 °FPassing clouds.2 mph71%30.01 "Hg22 mi
10:00 PM54 °FOvercast.3 mph67%30.00 "Hg19 mi
9:00 PM55 °FPassing clouds.3 mph63%29.97 "Hg47 mi
8:00 PM57 °FScattered clouds.3 mph62%29.96 "Hg47 mi
7:00 PM61 °FScattered clouds.3 mph58%29.94 "Hg47 mi
6:00 PM62 °FPassing clouds.7 mph52%29.94 "Hg47 mi
5:00 PM62 °FPassing clouds.6 mph53%29.93 "Hg47 mi
4:00 PM64 °FPartly sunny.7 mph54%29.93 "Hg47 mi
3:00 PM63 °FPartly sunny.5 mph47%29.94 "Hg47 mi
2:00 PM61 °FOvercast.3 mph49%29.97 "Hg47 mi
1:00 PM59 °FOvercast.5 mph56%29.99 "Hg47 mi
12:00 PM58 °FPartly sunny.3 mph62%30.00 "Hg43 mi
11:00 AM56 °FOvercast.2 mph66%30.01 "Hg43 mi
10:00 AM55 °FOvercast.2 mph63%30.01 "Hg43 mi
9:00 AM54 °FPassing clouds.2 mph72%30.01 "Hg40 mi
8:00 AM49 °FPartly sunny.3 mph85%30.03 "Hg40 mi
7:00 AM49 °FPartly sunny.3 mph81%30.03 "Hg34 mi
6:00 AM49 °FPassing clouds.2 mph72%30.02 "Hg25 mi
5:00 AM51 °FOvercast.2 mph70%30.02 "Hg19 mi
4:00 AM50 °FPassing clouds.2 mph75%30.03 "Hg18 mi
3:00 AM50 °FPassing clouds.2 mph72%30.04 "Hg19 mi
2:00 AM51 °FPassing clouds.2 mph73%30.05 "Hg19 mi
Weather by CustomWeather, © 2014

See weather overviewHow to use our weather pages